Location: Winthrop
(48.4780°N, 120.1850°W)
Time: 23:05:02
(UTC-07:00)

S-56A Canister/Altair - Pass Details

Date: 08 June 2023
Orbit: 640 x 2489 km, 38.9° (Epoch: 29 September)

Event Time Altitude Azimuth Distance (km) Brightness Sun altitude
Rises 23:29:58 0° 265° (W) 5,543 12.1 -15.8°
Reaches altitude 10° 23:33:23 10° 261° (W) 4,726 11.7 -16.0°
Maximum altitude 23:46:47 56° 189° (S) 2,820 10.0 -16.8°
Drops below altitude 10° 00:00:59 10° 118° (ESE) 4,980 11.3 -17.4°
Sets 00:04:43 0° 114° (ESE) 5,850 11.7 -17.5°
